OBJECT V, 57185

Orbit data source: Space-Track

You're viewing an Uncataloged Satellite

Recently launched and/or uncataloged satellites may have evolving metadata. Metadata may include but not limited to: Owner, Maufacturer, Bus, Motor, and Mission.

OBJECT V, 57185 is a satellite in SSO that was launched on Tue, 27 Jun 2023 UTC via a SOYUZ-2-1B launch vehicle from the Vostochny Cosmodrome (VOSTO). Unknown objects in Earth's orbit typically refer to objects detected orbiting the Earth but have not yet been identified or cataloged. These objects could be anything from previously untracked satellites, spent rocket stages, debris from satellite collisions, or even natural meteoroids temporarily captured by Earth's gravity.

Loading next visibility...
Identifier
57185, 2023-091V
Orbit
SSO
Country
Flag of TBDTBD
Related business
None
Manufacturer
Unknown
Mission
Operational Commercial Technology
Bus & Motor
Unknown
Mass
Unknown
Launch date (UTC)
2023-06-27 (3 years ago)
Launch vehicle
SOYUZ-2-1B
Launch site
Vostochny Cosmodrome (VOSTO)
Object type
Unknown
Shape & HBR
Box, 0.1 m
Radar Cross Section
0.035 m², Medium (>0.1 m² and < 1m²)

Expand to show TLE details & history
Last TLE update: 5 days ago

TLE from 5 days ago
0 OBJECT V
1 57185U 23091V   26155.29950845  .00024748  00000-0  64273-3 0  9992
2 57185  97.5062 225.6874 0008079 119.6864 240.5186 15.38924739162792
Epoch: 2026-06-04T07:11Z
TLE epoch observation values (Epoch: 2026-06-04T07:11:17.530Z)
Latitude
-0.00003°
Longitude
-134.8814°
Altitude
455.119 km
Speed
7.638 km/s
True Right ascension
15h 02m 44s
True Declination
0° 00' 00"
Sunlit
Object was in full shadow at epoch
Visualization orbit readout
Latitude
Unknown
Longitude
Unknown
Altitude
Unknown
Speed
Unknown
Apparent Right ascension
Unknown
Apparent Declination
Unknown
Sunlit
N/A
Visualization observer readout
Local Sidereal Time
19:40:02
Azimuth
Unknown
Elevation
Unknown
Doppler factor
Unknown
Orbital elements
Apogee altitude
451.746 km
Perigee altitude
440.719 km
Semi-major axis
6,824.37 km
Eccentricity
0.00081
Inclination
97.5062°
RAAN
225.6874°
Arg. of periapsis
119.6864°
True anomaly
240.43805°
Mean anomaly
240.5186°
Eccentric anomaly
240.47832°
Mean motion
3.8499 °/min
Orbital period
93.51 mins
BSTAR
0.00064273
Loading maneuver chart data...
Computing Atmospheric mass density...
Loading historical data...
Loading historical data...
Loading historical data...
Loading historical data...
Loading historical data...
Loading historical data...
Loading historical data...

Documentation

Showing up to 5 results
|